[[{"header":{"parameterUnit":"m.s-1","parameterCategory":1,"la1":30.2991,"la2":30.254,"lo1":-89.0895,"lo2":-89.0444,"dy":0.0017,"dx":0.0017,"nx":28,"ny":28,"refTime":"2024-07-26T03:00:00:Z","depth":0,"parameterNumber":2,"parameterNumberName":"U-component_of_WINDS"},"data":[0,0,0,0,0,0,0,0,0,0,0,0,0,0,0,0,0,0,0,0,0,0,0,0,0,0,0,0,0,0,0,0,0,0,0,0,0,0,0,0,0,0,0,0,0,0,0,0,0,0,0,0,0,0,0,0,0,0,-0.8829,-0.883,0,-0.892,-0.8921,-0.8922,-0.8979,-0.8979,-0.8979,-0.898,-0.9072,-0.9074,-0.9077,0,0,0,0,0,0,0,0,0,0,0,0,0,-0.8705,-0.8707,-0.8829,-0.883,-0.8831,-0.892,-0.8921,-0.8923,-0.8979,-0.8979,-0.8979,-0.898,-0.9072,-0.9074,-0.9077,0,0,0,0,0,0,0,0,0,0,0,0,0,-0.8773,-0.8707,-0.8829,-0.887,-0.8875,-0.892,-0.8921,-0.8923,-0.8979,-0.8979,-0.898,-0.898,-0.9071,-0.9074,-0.9077,-0.9088,0,0,-0.9087,-0.9089,0,0,0,0,0,0,0,0,-0.8769,-0.8778,-0.8863,-0.8867,-0.8872,-0.8939,-0.8912,-0.8978,-0.8978,-0.8939,-0.898,-0.898,-0.9027,-0.9034,-0.905,-0.9093,-0.9097,-0.9087,-0.9089,-0.9091,-0.9092,0,0,0,0,0,0,0,-0.8765,-0.8774,-0.8865,-0.8864,-0.887,-0.8884,-0.8895,-0.8925,-0.898,-0.8943,-0.8947,-0.8957,-0.903,-0.9047,-0.9053,-0.9098,-0.9087,-0.909,-0.9092,-0.9094,-0.9157,-0.9157,0,0,0,0,0,0,-0.8753,-0.877,-0.8862,-0.8868,-0.8821,-0.8886,-0.8898,-0.8917,-0.8979,-0.8989,-0.8956,-0.8959,-0.9041,-0.9049,-0.9056,-0.9075,-0.9091,-0.9094,-0.9096,-0.9157,-0.9157,-0.9156,0,0,0,0,0,0,-0.875,-0.8761,-0.8859,-0.882,-0.8834,-0.8888,-0.8909,-0.8918,-0.8936,-0.899,-0.9,-0.8964,-0.9042,-0.9052,-0.9081,-0.9079,-0.9095,-0.9098,-0.9157,-0.9157,-0.9157,-0.9111,0,0,0,0,0,0,-0.8747,-0.876,-0.8764,-0.882,-0.8836,-0.8881,-0.8909,-0.892,-0.8941,-0.8946,-0.8999,-0.9009,-0.9043,-0.9075,-0.9084,-0.9084,-0.9101,-0.9158,-0.9157,-0.9157,-0.9113,-0.911,-0.9106,0,0,0,0,0,-0.8742,-0.8747,-0.8764,-0.8775,-0.8842,-0.888,-0.8889,-0.8929,-0.8941,-0.8946,-0.8981,-0.9007,-0.9078,-0.9078,-0.9088,-0.9089,-0.9158,-0.9157,-0.9157,-0.9115,-0.911,-0.9106,0,0,0,0,0,0,-0.8689,-0.8755,-0.8774,-0.8798,-0.8833,-0.889,-0.8897,-0.8923,-0.8955,-0.8958,-0.9006,-0.9018,-0.9042,-0.9068,-0.9067,-0.9104,-0.9121,-0.9122,-0.9086,-0.9082,-0.9078,-0.9071,-0.9104,0,0,0,0,0,-0.868,-0.8705,-0.8762,-0.8777,-0.8794,-0.8842,-0.8861,-0.8888,-0.8927,-0.8942,-0.8979,-0.9016,-0.9047,-0.9066,-0.9097,-0.9118,-0.9131,-0.9124,-0.912,-0.9117,-0.9117,-0.9132,-0.913,-0.9154,-0.9154,-0.9154,0,0,-0.8661,-0.8701,-0.8714,-0.8767,-0.8798,-0.8824,-0.8855,-0.888,-0.89,-0.8946,-0.8976,-0.9005,-0.9049,-0.9074,-0.9087,-0.9097,-0.9114,-0.9116,-0.9113,-0.9115,-0.9131,-0.9129,-0.9127,-0.9154,-0.9154,-0.9154,0,0,-0.8641,-0.8673,-0.869,-0.872,-0.8767,-0.88,-0.8804,-0.8857,-0.8879,-0.8909,-0.8945,-0.897,-0.9021,-0.9052,-0.9074,-0.9068,-0.9093,-0.9077,-0.9058,-0.9072,-0.907,-0.9068,-0.9067,-0.9066,-0.9077,-0.9077,-0.9077,0,-0.8612,-0.8652,-0.8695,-0.8719,-0.8742,-0.8786,-0.8804,-0.8832,-0.8886,-0.8901,-0.8912,-0.8979,-0.9012,-0.9045,-0.9044,-0.906,-0.9067,-0.907,-0.9067,-0.9066,-0.9065,-0.9064,-0.9064,-0.9075,-0.9075,-0.9075,-0.9075,0,-0.8615,-0.8642,-0.865,-0.8702,-0.8727,-0.8747,-0.8794,-0.8814,-0.884,-0.8872,-0.8904,-0.8945,-0.8986,-0.8996,-0.9022,-0.9034,-0.9039,-0.9058,-0.9075,-0.906,-0.906,-0.906,-0.9071,-0.9072,-0.9073,-0.9073,0,0,-0.8562,-0.8639,-0.8641,-0.8666,-0.8722,-0.8744,-0.8768,-0.8809,-0.8825,-0.8861,-0.8883,-0.8927,-0.8945,-0.897,-0.9,-0.9012,-0.9006,-0.9029,-0.9031,-0.9024,-0.9024,-0.901,-0.9009,-0.9024,-0.9024,-0.9024,-0.9021,0,-0.855,-0.8594,-0.8635,-0.8665,-0.8692,-0.8735,-0.8756,-0.8792,-0.8823,-0.8851,-0.8886,-0.8916,-0.8937,-0.8953,-0.8967,-0.9004,-0.9007,-0.9005,-0.9045,-0.9046,-0.9032,-0.9009,-0.8994,-0.8989,-0.9021,-0.9021,-0.9021,0,-0.8542,-0.8577,-0.861,-0.8665,-0.8678,-0.8695,-0.8737,-0.8763,-0.8806,-0.8828,-0.8857,-0.8889,-0.8917,-0.8933,-0.8973,-0.897,-0.899,-0.901,-0.9011,-0.9016,-0.9032,-0.9014,-0.8988,-0.8988,-0.9022,-0.9022,-0.9022,0,-0.8501,-0.8557,-0.8584,-0.8604,-0.8668,-0.868,-0.8708,-0.8752,-0.8774,-0.8811,-0.8827,-0.8866,-0.8887,-0.8918,-0.896,-0.8967,-0.8996,-0.9014,-0.9015,-0.9014,-0.9019,-0.9018,-0.8996,-0.9031,-0.9031,-0.9031,-0.9031,0,-0.8483,-0.8502,-0.8567,-0.8583,-0.8606,-0.8653,-0.8674,-0.8706,-0.8745,-0.8769,-0.8809,-0.8831,-0.8885,-0.8914,-0.8947,-0.8976,-0.8985,-0.9004,-0.9013,-0.9001,-0.8998,-0.9014,-0.9015,-0.9031,-0.9031,-0.9031,-0.9031,0,-0.8441,-0.8485,-0.8518,-0.8577,-0.8592,-0.8606,-0.8657,-0.8676,-0.871,-0.874,-0.875,-0.8803,-0.884,-0.8885,-0.8935,-0.8958,-0.8984,-0.8996,-0.8969,-0.8974,-0.8973,-0.8972,-0.896,-0.8961,-0.8994,-0.8994,-0.8993,0,-0.8427,-0.8442,-0.8503,-0.8523,-0.8549,-0.8579,-0.8603,-0.8651,-0.8674,-0.8726,-0.8738,-0.8778,-0.8812,-0.8868,-0.8912,-0.8951,-0.8966,-0.8959,-0.8972,-0.896,-0.8967,-0.8965,-0.8968,-0.8955,-0.8955,-0.8954,-0.8954,0,-0.8397,-0.8419,-0.8452,-0.8492,-0.852,-0.8554,-0.859,-0.8604,-0.866,-0.8684,-0.8722,-0.8748,-0.8801,-0.884,-0.8886,-0.8915,-0.8944,-0.895,-0.8952,-0.894,-0.8924,-0.8933,-0.896,-0.8949,-0.895,-0.895,-0.895,-0.8951,-0.8369,-0.8386,-0.8432,-0.8467,-0.85,-0.8533,-0.8554,-0.8591,-0.8624,-0.867,-0.8697,-0.8734,-0.878,-0.8844,-0.8872,-0.8903,-0.8913,-0.8917,-0.8918,-0.8918,-0.8914,-0.8919,-0.8911,-0.8911,-0.8912,-0.8912,-0.8912,0,-0.8342,-0.8375,-0.8407,-0.8457,-0.8485,-0.8511,-0.8553,-0.8575,-0.8607,-0.8647,-0.8681,-0.8725,-0.8764,-0.8812,-0.8854,-0.887,-0.8884,-0.8879,-0.8879,-0.8885,-0.8902,-0.8896,-0.8867,-0.8867,-0.8867,-0.8867,-0.8867,-0.8867,-0.8332,-0.8361,-0.8389,-0.8435,-0.8468,-0.8505,-0.8527,-0.8558,-0.8591,-0.8639,-0.8671,-0.8702,-0.8746,-0.8792,-0.883,-0.8843,-0.8857,-0.8848,-0.8865,-0.888,-0.8884,-0.8887,-0.8882,-0.885,-0.885,-0.8846,-0.8846,-0.8846]},{"header":{"parameterUnit":"m.s-1","parameterCategory":1,"la1":30.2991,"la2":30.254,"lo1":-89.0895,"lo2":-89.0444,"dy":0.0017,"dx":0.0017,"nx":28,"ny":28,"refTime":"2024-07-26T03:00:00:Z","depth":0,"parameterNumber":3,"parameterNumberName":"V-component_of_WINDS"},"data":[0,0,0,0,0,0,0,0,0,0,0,0,0,0,0,0,0,0,0,0,0,0,0,0,0,0,0,0,0,0,0,0,0,0,0,0,0,0,0,0,0,0,0,0,0,0,0,0,0,0,0,0,0,0,0,0,0,0,3.5096,3.5097,0,3.514,3.514,3.5141,3.5155,3.5154,3.5154,3.5154,3.5195,3.5196,3.5198,0,0,0,0,0,0,0,0,0,0,0,0,0,3.5024,3.5025,3.5096,3.5097,3.5097,3.514,3.514,3.5141,3.5155,3.5154,3.5154,3.5154,3.5195,3.5196,3.5198,0,0,0,0,0,0,0,0,0,0,0,0,0,3.506,3.5026,3.5096,3.511,3.5111,3.5139,3.514,3.5141,3.5155,3.5154,3.5154,3.5154,3.5194,3.5196,3.5198,3.5215,0,0,3.5204,3.5205,0,0,0,0,0,0,0,0,3.5058,3.5063,3.5107,3.5109,3.5111,3.5142,3.513,3.5166,3.5155,3.5138,3.5154,3.5154,3.5177,3.5181,3.5189,3.5217,3.5219,3.5204,3.5205,3.5206,3.5206,0,0,0,0,0,0,0,3.5056,3.5061,3.5113,3.5108,3.511,3.5113,3.5118,3.5137,3.5159,3.5139,3.5141,3.5146,3.5178,3.5187,3.519,3.5219,3.5204,3.5206,3.5207,3.5207,3.5265,3.5265,0,0,0,0,0,0,3.5051,3.5059,3.5112,3.5115,3.5083,3.5114,3.512,3.5132,3.5158,3.5162,3.5146,3.5146,3.5184,3.5188,3.5192,3.5215,3.5206,3.5208,3.5209,3.5265,3.5265,3.5266,0,0,0,0,0,0,3.505,3.5056,3.511,3.5087,3.5094,3.5116,3.5129,3.5133,3.5142,3.5163,3.5167,3.5151,3.5184,3.5189,3.521,3.5216,3.5209,3.521,3.5264,3.5265,3.5265,3.5259,0,0,0,0,0,0,3.5047,3.5055,3.5062,3.5087,3.5096,3.5128,3.513,3.5134,3.5146,3.5146,3.5169,3.5173,3.5184,3.5207,3.5212,3.5219,3.5212,3.5264,3.5265,3.5265,3.5259,3.526,3.526,0,0,0,0,0,3.5045,3.5058,3.5062,3.5069,3.5105,3.5128,3.5133,3.5147,3.5146,3.5153,3.5167,3.5172,3.5215,3.5209,3.5214,3.5222,3.5263,3.5264,3.5265,3.5259,3.526,3.526,0,0,0,0,0,0,3.5031,3.5061,3.5067,3.5088,3.5106,3.5131,3.514,3.5147,3.5164,3.5164,3.5179,3.5185,3.5204,3.5215,3.5208,3.5241,3.5239,3.5241,3.5233,3.5234,3.5234,3.5231,3.5213,0,0,0,0,0,3.5031,3.5048,3.5073,3.509,3.5099,3.5118,3.5128,3.5138,3.5156,3.5163,3.5179,3.5196,3.5213,3.5224,3.5241,3.5261,3.5267,3.5269,3.527,3.527,3.5271,3.5284,3.5285,3.5268,3.5268,3.5268,0,0,3.503,3.5049,3.5058,3.5088,3.5102,3.512,3.5124,3.5141,3.5154,3.5166,3.5187,3.5199,3.5219,3.524,3.5249,3.5249,3.5278,3.5271,3.5271,3.5273,3.5285,3.5287,3.5288,3.5269,3.5269,3.5269,0,0,3.5037,3.5053,3.5069,3.5084,3.5107,3.512,3.5124,3.5149,3.5158,3.5179,3.5189,3.5204,3.5233,3.5248,3.5259,3.5274,3.5279,3.5279,3.5281,3.5293,3.5295,3.5296,3.5302,3.5303,3.528,3.528,3.528,0,3.5033,3.506,3.5076,3.5094,3.5107,3.512,3.5136,3.515,3.5177,3.5185,3.5185,3.5223,3.5238,3.5263,3.5267,3.5275,3.528,3.5276,3.5293,3.5295,3.5296,3.5302,3.5304,3.528,3.528,3.528,3.528,0,3.5054,3.5072,3.5083,3.511,3.5124,3.5141,3.516,3.5172,3.5181,3.5194,3.5216,3.5234,3.5256,3.5262,3.527,3.5289,3.5288,3.529,3.5289,3.5297,3.5303,3.5305,3.528,3.528,3.528,3.528,0,0,3.5052,3.509,3.5093,3.5107,3.5134,3.5148,3.5166,3.5189,3.5199,3.5218,3.5233,3.5259,3.5262,3.5274,3.5284,3.5295,3.5306,3.5296,3.5297,3.5297,3.5328,3.5326,3.5329,3.531,3.5311,3.5311,3.5327,0,3.5063,3.5096,3.5112,3.5139,3.5157,3.517,3.5186,3.5204,3.5217,3.5234,3.5248,3.5266,3.5269,3.5276,3.5288,3.5302,3.5313,3.5302,3.5324,3.5325,3.5319,3.5331,3.5329,3.5343,3.5329,3.5329,3.533,0,3.5079,3.51,3.5128,3.5155,3.5163,3.5177,3.52,3.5216,3.5237,3.5246,3.5261,3.5271,3.529,3.5289,3.5315,3.5308,3.5318,3.5327,3.5328,3.533,3.5327,3.5334,3.5347,3.5349,3.5333,3.5333,3.5333,0,3.5076,3.511,3.5132,3.5143,3.5174,3.5184,3.5198,3.5219,3.5232,3.5251,3.526,3.5281,3.5293,3.5309,3.5324,3.5321,3.535,3.5349,3.5357,3.5357,3.5362,3.5361,3.5377,3.5369,3.5369,3.5369,3.5369,0,3.5086,3.5103,3.5131,3.5144,3.5164,3.5183,3.5201,3.5216,3.5235,3.5251,3.5264,3.5278,3.5298,3.5315,3.5328,3.5348,3.5353,3.5361,3.5364,3.536,3.5359,3.5366,3.5365,3.537,3.5369,3.5369,3.5369,0,3.5085,3.5104,3.5129,3.5158,3.5166,3.5179,3.5203,3.5217,3.5231,3.5252,3.5257,3.528,3.5301,3.5319,3.5346,3.5354,3.5376,3.5379,3.5369,3.537,3.5378,3.5377,3.5398,3.5402,3.5392,3.5392,3.5392,0,3.509,3.5104,3.5135,3.5147,3.5161,3.518,3.5195,3.5214,3.5228,3.5254,3.5264,3.5287,3.5306,3.5339,3.5357,3.5378,3.5382,3.5388,3.5385,3.5381,3.5382,3.5381,3.5383,3.5388,3.5388,3.5388,3.5388,0,3.5097,3.5107,3.5127,3.5151,3.5168,3.5187,3.5207,3.5216,3.5239,3.5254,3.5277,3.5292,3.5321,3.5343,3.5366,3.5379,3.5388,3.539,3.5393,3.5388,3.5382,3.5386,3.5369,3.5389,3.5389,3.5389,3.5389,3.5389,3.5099,3.5113,3.5137,3.516,3.5177,3.5196,3.521,3.5227,3.5247,3.5273,3.5283,3.5306,3.5328,3.5361,3.5375,3.5393,3.5394,3.5398,3.5399,3.54,3.5399,3.538,3.5397,3.5397,3.5397,3.5397,3.5397,0,3.5107,3.5124,3.5145,3.5173,3.5191,3.5199,3.5222,3.5236,3.5257,3.5277,3.5296,3.5323,3.5345,3.5366,3.5389,3.5399,3.5404,3.5405,3.5404,3.5407,3.5397,3.5392,3.5401,3.5401,3.5401,3.5401,3.5401,3.5401,3.5114,3.5137,3.515,3.5182,3.5199,3.5223,3.5235,3.5253,3.5269,3.5299,3.5318,3.5332,3.5352,3.5377,3.5398,3.5403,3.5411,3.5411,3.5418,3.5408,3.5407,3.5407,3.5402,3.5413,3.5413,3.5426,3.5426,3.5426]}]]